Flag for Slovakia Weather past 2 weeks in Piešťany, Slovakia

Now
46 °F

Overcast.


Feels Like: 38 °F
Forecast: 38 / 50 °F
Wind: 26 mph from North

Location: Piestany

Current Time: Oct 24, 2014 at 12:24:04 AM

Latest Report: Oct 24, 2014 at 12:00 AM


Visibility: N/A

Pressure: 29.95 "Hg

Humidity: 71%

Dew point: 37 °F

Location of PiešťanyLocation

Historic Weather in Piešťany — Graph

°F

Piešťany temperature yesterday

Maximum temperature yesterday: 52 °F (at 2:00 PM)
Minimum temperature yesterday: 43 °F (at 6:30 AM)
Average temperature yesterday: 47 °F

Past Weeks' High & Low Weather Summary

 TemperatureHumidityPressure
High75 °F (Oct 12, 3:30 PM)100% (Oct 21, 10:00 AM)30.36 "Hg (Oct 21, 10:00 AM)
Low43 °F (Oct 19, 4:00 AM)50% (Oct 12, 4:00 PM)29.59 "Hg (Oct 22, 1:30 AM)
Average58 °F80%29.94 "Hg
* Reported Oct 8 11:00 PM — Oct 23 11:00 PM, Piešťany, Weather by CustomWeather, © 2014

Note: Actual official high and low records may vary slightly from our data, if they occured in-between our weather recording intervals... More about our weather records

Advertising

Piešťany weather history for previous 24 hours

 ConditionsComfort  
Time TempWeatherWind HumidityBarometerVisibility
11:00 PM
Oct 23
46 °FMostly cloudy.28 mph71%29.95 "HgN/A
10:30 PM46 °FOvercast.25 mph71%29.95 "HgN/A
10:00 PM46 °FOvercast.25 mph71%29.95 "HgN/A
9:30 PM46 °FPartly cloudy.22 mph76%29.95 "HgN/A
9:00 PM46 °FPartly cloudy.22 mph76%29.95 "HgN/A
8:30 PM46 °FPartly cloudy.16 mph76%29.95 "HgN/A
8:00 PM46 °FPassing clouds.24 mph76%29.92 "HgN/A
7:30 PM46 °FPassing clouds.28 mph76%29.92 "HgN/A
7:00 PM46 °FPassing clouds.24 mph76%29.92 "HgN/A
6:30 PM48 °FPartly sunny.23 mph76%29.89 "HgN/A
6:00 PM46 °FPartly sunny.26 mph82%29.89 "HgN/A
5:30 PM48 °FPartly sunny.22 mph76%29.86 "HgN/A
5:00 PM48 °FPartly sunny.18 mph82%29.86 "HgN/A
4:30 PM50 °FBroken clouds.21 mph76%29.86 "HgN/A
4:00 PM50 °FLight rain. Broken clouds.16 mph82%29.86 "HgN/A
3:30 PM50 °FLight rain. Broken clouds.12 mph82%29.86 "HgN/A
3:00 PM52 °FLight rain. Broken clouds.14 mph77%29.83 "HgN/A
2:30 PM52 °FBroken clouds.13 mph77%29.83 "HgN/A
2:00 PM52 °FLight rain. Broken clouds.18 mph82%29.80 "HgN/A
1:30 PM50 °FLight rain. Broken clouds.15 mph88%29.80 "HgN/A
1:00 PM50 °FLight rain. More clouds than sun.14 mph82%29.80 "HgN/A
12:30 PM48 °FLight rain. Partly sunny.7 mph87%29.83 "HgN/A
12:00 PM48 °FLight rain. Broken clouds.9 mph87%29.83 "HgN/A
11:30 AM48 °FLight rain. Partly sunny.13 mph82%29.80 "HgN/A
11:00 AM48 °FPartly sunny.13 mph82%29.80 "HgN/A
10:30 AM46 °FLight rain. Partly sunny.14 mph82%29.80 "HgN/A
10:00 AM46 °FScattered clouds.12 mph82%29.77 "HgN/A
9:30 AM46 °FPassing clouds.8 mph87%29.77 "HgN/A
9:00 AM46 °FScattered clouds.9 mph82%29.77 "HgN/A
8:30 AM45 °FScattered clouds.6 mph87%29.77 "HgN/A
8:00 AM43 °FPassing clouds.10 mph87%29.74 "HgN/A
7:30 AM43 °FPassing clouds.12 mph93%29.71 "HgN/A
7:00 AM43 °FPassing clouds.10 mph93%29.71 "HgN/A
6:30 AM43 °FPassing clouds.7 mph93%29.71 "HgN/A
6:00 AM45 °FPassing clouds.7 mph87%29.68 "HgN/A
5:30 AM45 °FOvercast.8 mph87%29.68 "HgN/A
5:00 AM45 °FOvercast.5 mph93%29.71 "HgN/A
4:30 AM45 °FOvercast.6 mph87%29.68 "HgN/A
4:00 AM45 °FMostly cloudy.5 mph87%29.68 "HgN/A
3:30 AM45 °FMostly cloudy.3 mph93%29.71 "HgN/A
3:00 AM45 °FDrizzle. Overcast.6 mph87%29.68 "HgN/A
2:30 AM45 °FOvercast.5 mph87%29.68 "HgN/A
2:00 AM45 °FOvercast.2 mph87%29.68 "HgN/A
1:30 AM45 °FOvercast.6 mph87%29.68 "HgN/A
1:00 AM45 °FOvercast.7 mph87%29.68 "HgN/A
12:30 AM45 °FDrizzle. Overcast.8 mph87%29.68 "Hg6 mi
12:00 AM45 °FLight rain. Overcast.7 mph87%29.68 "HgN/A
Weather by CustomWeather, © 2014

See weather overviewHow to use our weather pages